• Join FlightAware (Why Join?)
  • Login
  • US Flag GB Flag 
09:17 EDT


 

Airport Tracker/Info


-or-


 

Live Flight TrackerFlight Track Log ✈ CTL16 ✈ 19-Apr-2013 ✈ KMWO - KBKL

Flight Track Log - Related Links

Times and Time Zones

All times are in EDT time to prevent confusion due to time zone crossing. See the CTL16 flight status page for this flight to view local times or setup timezone preferences in your user account.

Time Position Orientation Groundspeed Altitude Reporting Facility
EDT Latitude Longitude Course Direction KTS MPH feet Rate Location/Type
20:34 39.5414 -84.2808 53° Northeast 189 217 6,100  Level Indianapolis Center
20:34 39.5486 -84.2683 53° Northeast 182 209 6,400 900 Climbing Indianapolis Center
20:35 39.5814 -84.2267 44° Northeast 162 186 7,300 900 Climbing Indianapolis Center
20:36 39.5967 -84.2031 50° Northeast 169 194 7,800 900 Climbing Indianapolis Center
20:36 39.6139 -84.1850 39° Northeast 161 185 8,200 660 Climbing Indianapolis Center
20:37 39.6294 -84.1628 48° Northeast 164 189 8,500 660 Climbing Indianapolis Center
20:37 39.6469 -84.1403 45° Northeast 159 183 8,900 360 Climbing Indianapolis Center
20:38 39.6611 -84.1214 46° Northeast 161 185 8,900  Level Indianapolis Center
20:38 39.6839 -84.0964 40° Northeast 190 219 8,900  Level Indianapolis Center
20:39 39.7003 -84.0764 43° Northeast 174 200 8,900  Level Indianapolis Center
20:39 39.7208 -84.0525 42° Northeast 195 224 8,900  Level Indianapolis Center
20:40 39.7406 -84.0247 47° Northeast 190 219 8,900  Level Indianapolis Center
20:40 39.7603 -84.0033 40° Northeast 202 232 8,900  Level Indianapolis Center
20:41 39.7817 -83.9742 46° Northeast 197 227 8,900 60 Level Indianapolis Center
20:41 39.7997 -83.9514 44° Northeast 201 231 9,000 60 Climbing Indianapolis Center
20:42 39.8214 -83.9222 46° Northeast 200 230 9,000  Level Indianapolis Center
20:42 39.8394 -83.8994 44° Northeast 201 231 9,000  Level Indianapolis Center
20:43 39.8622 -83.8703 45° Northeast 201 231 9,000  Level Indianapolis Center
20:43 39.8811 -83.8475 43° Northeast 204 235 9,000  Level Indianapolis Center
20:44 39.9033 -83.8183 45° Northeast 202 232 9,000  Level Indianapolis Center
20:44 39.9203 -83.7983 42° Northeast 203 234 9,000  Level Indianapolis Center
20:45 39.9456 -83.7678 43° Northeast 203 234 9,000 -120 Level Indianapolis Center
20:45 39.9639 -83.7492 38° Northeast 203 234 8,900 -120 Descending Indianapolis Center
20:46 39.9872 -83.7172 46° Northeast 202 232 8,900 60 Level Indianapolis Center
20:46 40.0056 -83.6947 43° Northeast 200 230 9,000 60 Climbing Indianapolis Center
20:47 40.0281 -83.6664 44° Northeast 201 231 9,000 60 Level Indianapolis Center
20:47 40.0467 -83.6481 37° Northeast 200 230 9,100 60 Climbing Indianapolis Center
20:48 40.0783 -83.6092 43° Northeast 201 231 9,100 -120 Level Indianapolis Center
20:48 40.0881 -83.5986 40° Northeast 203 234 9,000 -120 Descending Indianapolis Center
20:49 40.1200 -83.5572 45° Northeast 203 234 9,000  Level Indianapolis Center
20:50 40.1611 -83.5033 45° Northeast 206 237 9,000 -60 Level Indianapolis Center
20:51 40.2006 -83.4472 47° Northeast 206 237 8,900  Descending Indianapolis Center
20:52 40.2411 -83.3919 46° Northeast 207 238 9,000 60 Climbing Indianapolis Center
20:53 40.2817 -83.3383 45° Northeast 205 236 9,100  Climbing Indianapolis Center
20:53 40.2944 -83.3208 46° Northeast 203 234 9,000 -120 Descending Indianapolis Center
20:54 40.3219 -83.2839 46° Northeast 206 237 9,000  Level Indianapolis Center
20:55 40.3625 -83.2311 45° Northeast 204 235 9,000  Level Indianapolis Center
20:56 40.4033 -83.1778 45° Northeast 204 235 9,100  Climbing Indianapolis Center
20:57 40.4422 -83.1244 46° Northeast 201 231 9,000 -60 Descending Indianapolis Center
20:58 40.4842 -83.0736 43° Northeast 202 232 9,000  Level Indianapolis Center
20:59 40.5264 -83.0189 45° Northeast 205 236 9,000  Level Indianapolis Center
21:00 40.5672 -82.9694 43° Northeast 199 229 9,000 -60 Level Indianapolis Center
21:01 40.6069 -82.9144 46° Northeast 203 234 8,900  Descending Indianapolis Center
21:02 40.6467 -82.8653 43° Northeast 199 229 9,000  Climbing Cleveland Center
21:03 40.6875 -82.8119 45° Northeast 199 229 9,000  Level Cleveland Center
21:04 40.7239 -82.7639 45° Northeast 199 229 9,000 -60 Level Cleveland Center
21:05 40.7644 -82.7106 45° Northeast 199 229 8,900 -60 Descending Cleveland Center
21:06 40.8050 -82.6569 45° Northeast 199 229 8,900  Level Cleveland Center
21:07 40.8433 -82.6142 40° Northeast 203 234 9,000  Climbing Cleveland Center
21:08 40.8903 -82.5525 45° Northeast 199 229 9,000  Level Cleveland Center
21:08 40.9072 -82.5339 40° Northeast 202 232 9,000  Level Cleveland Center
21:09 40.9308 -82.5014 46° Northeast 199 229 9,000  Level Cleveland Center
21:09 40.9456 -82.4881 34° Northeast 205 236 9,000  Level Cleveland Center
21:10 40.9733 -82.4450 49° Northeast 199 229 9,000  Level Cleveland Center
21:10 40.9861 -82.4289 44° Northeast 209 241 9,000  Level Cleveland Center
21:11 41.0117 -82.3883 50° Northeast 199 229 9,000 -120 Level Cleveland Center
21:11 41.0267 -82.3694 44° Northeast 207 238 8,900 -120 Descending Cleveland Center
21:12 41.0503 -82.3342 48° Northeast 204 235 8,900 60 Level Cleveland Center
21:12 41.0650 -82.3181 40° Northeast 208 239 9,000 -240 Climbing Cleveland Center
21:13 41.0906 -82.2775 50° Northeast 204 235 8,700 -600 Descending Cleveland Center
21:13 41.1033 -82.2614 44° Northeast 215 247 8,400 -600 Descending Cleveland Center
21:14 41.1331 -82.2181 48° Northeast 209 241 8,100 -540 Descending Cleveland Center
21:14 41.1458 -82.2017 44° Northeast 226 260 7,900 -120 Descending Cleveland Center
21:15 41.1756 -82.1639 44° Northeast 214 246 8,000 60 Climbing Cleveland Center
21:15 41.1883 -82.1447 48° Northeast 210 242 8,000  Level Cleveland Center
21:16 41.2119 -82.1094 48° Northeast 209 241 8,000 -120 Level Cleveland Center
21:17 41.2353 -82.0797 44° Northeast 207 238 7,900 -240 Descending Cleveland Center
21:18 41.2733 -82.0197 50° Northeast 207 238 7,700 -420 Descending Cleveland Center
21:18 41.2969 -81.9678 59° Northeast 230 265 7,200 -720 Descending Cleveland Center
21:19 41.3272 -81.8883 63° Northeast 235 270 6,400 -1,080 Descending Cleveland Center
21:20 41.3656 -81.8033 59° Northeast 240 276 5,000 -1,320 Descending Cleveland Center
21:21 41.4039 -81.7319 54° Northeast 240 276 3,700 -1,140 Descending Cleveland Center
21:22 41.4378 -81.6689 54° Northeast 217 250 2,900 -840 Descending Cleveland Center
21:23 41.4694 -81.6194 49° Northeast 181 208 2,100 -720 Descending Cleveland Center
21:24 41.5133 -81.6314 348° North 131 151 1,500 -660 Descending Cleveland Center
21:25 41.5275 -81.6592 304° West 82 94 800 -720 Descending Cleveland Center
21:27 41.5167 -81.6667 270° West  Level FlightAware Approximate
21:34 41.5175 -81.6833 270° West  Level Estimated